Flag Weather past 2 weeks in Basseterre, Saint Kitts and Nevis

Now
84 °F

Scattered clouds.


Feels Like: 91 °F
Forecast: N/A
Wind: 18 mph from Northeast

Location: Golden Rock

Current Time: Nov 20, 2014 at 4:58:19 PM

Latest Report: Nov 20, 2014 at 4:00 PM


Visibility: N/A

Pressure: 29.92 "Hg

Humidity: 70%

Dew point: 73 °F

Location of BasseterreLocation

Historic Weather in Basseterre — Graph

°F

Basseterre temperature yesterday

Maximum temperature yesterday: 86 °F (at 10:00 AM)
Minimum temperature yesterday: 81 °F (at 6:00 AM)
Average temperature yesterday: 82 °F

Past Weeks' High & Low Weather Summary

 TemperatureHumidityPressure
High90 °F (Nov 6, 11:00 AM)100% (Nov 8, 9:00 AM)30.07 "Hg (Nov 8, 9:00 AM)
Low72 °F (Nov 20, 6:00 AM)62% (Nov 6, 1:00 PM)29.86 "Hg (Nov 7, 2:00 PM)
Average83 °F78%29.95 "Hg
* Reported Nov 5 3:00 PM — Nov 20 3:00 PM, Basseterre, Weather by CustomWeather, © 2014

Note: Actual official high and low records may vary slightly from our data, if they occured in-between our weather recording intervals... More about our weather records

Advertising

Basseterre weather history for previous 24 hours

 ConditionsComfort  
Time TempWeatherWind HumidityBarometerVisibility
3:00 PM
Nov 20
84 °FPassing clouds.14 mph66%29.95 "HgN/A
2:00 PM86 °FPassing clouds.17 mph66%29.95 "HgN/A
1:00 PM84 °FPassing clouds.17 mph66%29.95 "HgN/A
12:00 PM86 °FPassing clouds.14 mph66%29.98 "HgN/A
11:00 AM86 °FPassing clouds.14 mph62%30.01 "HgN/A
10:00 AM84 °FPassing clouds.14 mph66%30.04 "HgN/A
9:00 AM82 °FScattered clouds.17 mph70%30.04 "HgN/A
8:00 AM79 °FScattered clouds.10 mph89%30.01 "HgN/A
7:00 AM75 °FThunderstorms. Scattered clouds.10 mph89%30.01 "HgN/A
6:00 AM72 °FThunderstorms. Partly cloudy.14 mph94%30.01 "HgN/A
12:00 AM75 °FThunderstorms. Passing clouds.9 mph94%30.01 "HgN/A
11:00 PM
Nov 19
81 °FPassing clouds.16 mph79%30.01 "HgN/A
10:00 PM81 °FPassing clouds.15 mph79%30.01 "HgN/A
9:00 PM81 °FPassing clouds.16 mph84%30.01 "HgN/A
8:00 PM81 °FPassing clouds.17 mph74%29.98 "HgN/A
7:00 PM81 °FPassing clouds.14 mph89%29.98 "HgN/A
6:00 PM81 °FPassing clouds.14 mph84%29.98 "HgN/A
5:00 PM82 °FScattered clouds.18 mph79%29.98 "HgN/A
4:00 PM84 °FWarm.14 mph70%29.95 "HgN/A
Weather by CustomWeather, © 2014

See weather overviewHow to use our weather pages